Weather History for KELP - July, 2013

Change the Weather History Date:

Monday, July 22, 2013

  Actual Average Record
Temperature  
Mean Temperature 84 °F 82 °F  
Max Temperature 95 °F 94 °F 103 °F (1981)
Min Temperature 73 °F 71 °F 57 °F (1988)
Degree Days  
Heating Degree Days 0 0  
Month to date heating degree days 0 0  
Since 1 June heating degree days 0 0  
Since 1 July heating degree days 0 0  
Cooling Degree Days 19 17  
Month to date cooling degree days 389 397  
Year to date cooling degree days 1560 1276  
Since 1 June cooling degree days 1052 899  
Growing Degree Days 34 (Base 50)    
Moisture  
Dew Point 60 °F    
Average Humidity 50    
Maximum Humidity 69    
Minimum Humidity 30    
Precipitation  
Precipitation T in 0.06 in 1.69 in (1880)
Month to date precipitation 0.60 1.00  
Year to date precipitation 1.65 3.76  
Snow  
Snow 0.00 in - - ()
Month to date snowfall 0.0  
Since 1 June snowfall 0.0  
Since 1 July snowfall 0.0  
Snow Depth 0.00 in    
Sea Level Pressure  
Sea Level Pressure 29.79 in    
Wind  
Wind Speed 11 mph (SW)    
Max Wind Speed 24 mph    
Max Gust Speed 29 mph    
Visibility 10 miles    
Events Rain , Thunderstorm    
T = Trace of Precipitation, MM = Missing Value Source: NWS Daily Summary

Daily Weather History Graph

Daily Weather History Graph

Search for Another Location

Airport or City:

Trip Planner

Search our weather history database for the weather conditions in past years. The results will help you decide how hot, cold, wet, or windy it might be!

Date:

Astronomy

Jul. 22, 2013 Rise Set
Actual Time 6:14 AM MDT 8:08 PM MDT
Civil Twilight 5:47 AM MDT 8:35 PM MDT
Nautical Twilight 5:14 AM MDT 9:08 PM MDT
Astronomical Twilight 4:40 AM MDT 9:43 PM MDT
Moon 8:02 PM MDT (7/22) 6:10 AM MDT (7/22)
Length of Visible Light 14h 47m
Length of Day
13h 53m
Full, 100% of the Moon is Illuminated
Jul 22
Full
Jul 22
Full
Jul 29
Last Quarter
Aug 6
New
Aug 14
First Quarter

Hourly Weather History & Observations

Time (MDT) Temp. Heat Index Dew Point Humidity Pressure Visibility Wind Dir Wind Speed Gust Speed Precip Events Conditions
12:51 AM 77.0 °F - 60.1 °F 56% 29.79 in 10.0 mi South 6.9 mph - N/A   Scattered Clouds
1:51 AM 73.9 °F - 60.1 °F 62% 29.78 in 10.0 mi SW 9.2 mph - N/A   Scattered Clouds
2:51 AM 75.9 °F - 57.9 °F 54% 29.77 in 10.0 mi WSW 17.3 mph - N/A   Scattered Clouds
3:51 AM 73.9 °F - 61.0 °F 64% 29.77 in 10.0 mi SSW 10.4 mph - N/A   Scattered Clouds
4:51 AM 75.0 °F - 61.0 °F 62% 29.77 in 10.0 mi WSW 9.2 mph - N/A   Scattered Clouds
5:51 AM 73.9 °F - 61.0 °F 64% 29.78 in 10.0 mi SW 6.9 mph - N/A   Scattered Clouds
6:51 AM 75.0 °F - 61.0 °F 62% 29.79 in 10.0 mi WSW 10.4 mph - N/A   Scattered Clouds
7:51 AM 75.9 °F - 61.0 °F 60% 29.81 in 10.0 mi SW 10.4 mph - N/A   Scattered Clouds
8:51 AM 79.0 °F - 62.1 °F 56% 29.83 in 10.0 mi SW 10.4 mph - N/A   Scattered Clouds
9:51 AM 82.0 °F 83.0 °F 62.1 °F 51% 29.82 in 10.0 mi SW 10.4 mph - N/A   Scattered Clouds
10:51 AM 84.0 °F 84.4 °F 61.0 °F 46% 29.82 in 10.0 mi WSW 10.4 mph - N/A   Scattered Clouds
11:51 AM 87.1 °F 86.5 °F 59.0 °F 39% 29.81 in 10.0 mi WSW 9.2 mph - N/A   Scattered Clouds
12:51 PM 90.0 °F 89.1 °F 59.0 °F 35% 29.78 in 10.0 mi West 9.2 mph - N/A   Scattered Clouds
1:51 PM 91.0 °F 90.2 °F 59.0 °F 34% 29.76 in 10.0 mi Calm Calm - N/A   Scattered Clouds
2:51 PM 91.9 °F 90.8 °F 57.9 °F 32% 29.73 in 10.0 mi SSW 8.1 mph - N/A   Scattered Clouds
3:51 PM 91.9 °F 90.0 °F 55.0 °F 29% 29.70 in 10.0 mi NNW 6.9 mph 16.1 mph N/A   Mostly Cloudy
4:51 PM 93.0 °F 90.8 °F 54.0 °F 27% 29.69 in 10.0 mi NE 6.9 mph - N/A Thunderstorm Thunderstorm
5:51 PM 84.0 °F 83.5 °F 57.9 °F 41% 29.72 in 10.0 mi South 17.3 mph 24.2 mph N/A Thunderstorm Thunderstorm
6:17 PM 84.2 °F 83.5 °F 57.2 °F 40% 29.93 in 10.0 mi South 16.1 mph 19.6 mph N/A   Mostly Cloudy
6:51 PM 87.1 °F 85.3 °F 55.0 °F 33% 29.71 in 10.0 mi SSE 12.7 mph - N/A   Mostly Cloudy
7:51 PM 80.1 °F 81.1 °F 61.0 °F 52% 29.76 in 10.0 mi South 15.0 mph - 0.00 in   Mostly Cloudy
8:51 PM 78.1 °F - 62.1 °F 58% 29.77 in 10.0 mi South 13.8 mph - N/A   Mostly Cloudy
9:51 PM 75.9 °F - 64.0 °F 67% 29.80 in 10.0 mi South 12.7 mph - N/A   Mostly Cloudy
10:09 PM 77.0 °F - 60.8 °F 57% 30.02 in 10.0 mi WSW 20.7 mph - N/A   Mostly Cloudy
10:51 PM 75.9 °F - 61.0 °F 60% 29.81 in 10.0 mi WSW 23.0 mph 28.8 mph N/A   Mostly Cloudy
11:51 PM 75.0 °F - 61.0 °F 62% 29.82 in 10.0 mi SW 19.6 mph 26.5 mph N/A   Mostly Cloudy